Terug naar catalogus

STARLINK-4767

ActiefCommunicatieVLEO
NORAD 53850·PAYLOAD·🇺🇸 United States

Gelanceerd Sep 19, 2022 vanaf Cape Canaveral Space Force Station

Loading…

Volgende Passages (komende 24 uur)

TLE

VersSource: CelesTrak SupGP

Epoch: Sep 15, 2026, 01:50 UTC

1 53850C 22114AJ  26258.07687500  .00008926  00000+0  55986-3 0  2585
2 53850  53.1582 162.9177 0001557  90.8305  68.2450 15.08822337    18

Volg STARLINK-4767 in realtime met AllMySat

Download on the App Store